Tracking 29487 objects as of 12-Sep-2024
HD Live streaming from Space Station
objects crossing your sky now

FENGYUN 1C DEB

Track FENGYUN 1C DEB now!
10-day predictions


NORAD ID: 35244
Int'l Code: 1999-025DRC
Perigee: 831.0 km
Apogee: 935.3 km
Inclination: 98.9 °
Period: 102.5 minutes
Semi major axis: 7254 km
RCS: 0.0028 m2 (small)
Launch date: May 10, 1999
Source: People's Republic of China (PRC)
Launch site: Taiyaun Space Center, China (TSC)

Note: This is SATELLITE DEBRIS
Your satellite tracking list
Your tracking list is empty




NASA's NSSDC Master Catalog

Two Line Element Set (TLE):
1 35244U 99025DRC 24255.07335612  .00002971  00000-0  18239-2 0  9992
2 35244  98.8944 298.8799 0071934   1.1430 358.9889 14.05154501593909
Source of the keplerian elements: AFSPC